{"data":{"norad_id":59841,"intl_designator":"2024-097G","name":"STARLINK-31852","alt_names":[],"object_type":"PAYLOAD","status":"ACTIVE","operator":null,"country":"US","launch_date":"2024-05-23","launch_site_code":"AFETR","launch_vehicle":null,"mission":null,"orbit_class":"UNKNOWN","rcs_meters":null,"size_class":null,"mass_kg":null,"dimensions":null,"purposes":["comms"],"wikipedia_slug":null,"has_3d_model":false,"image_url":null,"decayed_at":null,"tle_current":{"epoch":"2026-05-25T04:13:08.947200Z","epoch_age_seconds":59816,"freshness":"FRESH","line1":"1 59841U 24097G   26145.17579800  .00000666  00000+0  33722-4 0  9992","line2":"2 59841  43.0019 194.6810 0001045 277.4618  82.6115 15.27578195113705","mean_motion":15.27578195,"eccentricity":0.0001045,"inclination_deg":43.0019,"raan_deg":194.681,"arg_perigee_deg":277.4618,"mean_anomaly_deg":82.6115,"bstar":3.3722e-5,"rev_number":11370,"period_min":94.266860100081,"perigee_km":482.33750635248,"apogee_km":483.77149537616,"semimajor_km":6861.1915008643,"source":"CELESTRAK","updated_at":"2026-05-25T13:38:19.086216Z"}}}